Regional Weather Roundup
Issued by NWS

Home | Current Version | Previous Version | Graphics & Text | Print | Product List | Glossary On
Versions: 1 2 3 4 5 6 7 8 9 10 11 12 13 14 15 16 17 18 19 20 21 22 23 24 25 26 27 28 29 30 31 32 33 34 35 36 37 38 39 40 41 42 43 44 45 46 47 48 49 50
255
ASUS43 KLOT 272008
RWRIL

ILLINOIS REGIONAL WEATHER ROUNDUP
NATIONAL WEATHER SERVICE CHICAGO/ROMEOVILLE IL
200 PM CST MON FEB 27 2017

NOTE: "FAIR" INDICATES FEW OR NO CLOUDS BELOW 12,000 FEET WITH NO
SIGNIFICANT WEATHER AND/OR OBSTRUCTIONS TO VISIBILITY.

* THESE STATIONS ARE NOT UNDER NWS QUALITY CONTROL. THEY ALSO MAY NOT
  REPORT WEATHER SUCH AS PRECIPITATION OR FOG.

ILZ001-002-007-009-015-016-024-272100-
NORTHWEST ILLINOIS

CITY           SKY/WX    TMP DP  RH WIND       PRES   REMARKS
MOLINE         MOSUNNY   55  33  43 SW8       30.03F
STERLING*      MOSUNNY   53  35  50 SW12      30.07F
$$

ILZ003-004-008-010-011-017-018-272100-
NORTH CENTRAL ILLINOIS

CITY           SKY/WX    TMP DP  RH WIND       PRES   REMARKS
ROCKFORD       MOSUNNY   52  35  52 S13       30.08F
FREEPORT*      MOSUNNY   49  34  58 S10       30.08F
ROCHELLE*      MOSUNNY   52  35  52 SW14G20   30.07F
DE KALB*       PTSUNNY   51  36  55 S14       30.08F
PERU*          MOSUNNY   53  30  41 S10       30.07F
$$

ILZ005-006-012>014-019>023-272100-
NORTHEAST ILLINOIS

CITY           SKY/WX    TMP DP  RH WIND       PRES   REMARKS
CHICAGO-OHARE  MOSUNNY   51  33  50 S15       30.09F
CHICAGO-MIDWAY MOSUNNY   53  33  46 SW9       30.11F
AURORA         MOSUNNY   52  34  50 S13       30.08F
LANSING*       CLOUDY    52  37  57 SW8       30.12F
JOLIET*        MOSUNNY   55  34  45 SW7       30.09F
WAUKEGAN       SUNNY     46  34  62 SE14      30.08F
DUPAGE AIRPORT MOSUNNY   52  33  48 S9        30.08F
KANKAKEE*      CLOUDY    54  32  43 S9        30.11F
WHEELING       SUNNY     51  32  48 S9        30.10F
MORRIS*        MOSUNNY   54  32  43 SW10      30.08F
ROMEOVILLE*    MOSUNNY   54  37  53 SW9       30.09F
NORTHERLY ISL    N/A     40  34  79 E9          N/A
$$

LMZ740>746-272100-
SOUTHERN LAKE MICHIGAN

STATION/POSITION SKY/WX   TEMP    WIND        PRES    VSBY  WAVE
                          AIR SEA DIR/SP/G                  HT/PER
                          (F)     (DEG/KT/KT) (MB)    (MI)  (FT/S)
HARRISON CRIB              41     110/ 11/ 12   N/A
BURNHAM HARBOR             41      70/  7/  9   N/A
CALUMET HARBOR             49     160/  6/  9 1019.3F
BURNS HARBOR               49     190/ 12/ 15 1020.7F
MICHIGAN CITY              44     290/  4/  5   N/A
$$

ILZ025>027-034>036-040-047-049-050-058-095>099-272100-
WEST-CENTRAL ILLINOIS

CITY           SKY/WX    TMP DP  RH WIND       PRES   REMARKS
QUINCY         SUNNY     58  30  34 S12       30.01F
GALESBURG*     MOSUNNY   56  33  43 S13       30.04F
MACOMB*        SUNNY     57  32  38 SW12      30.06F
JACKSONVILLE*  SUNNY     58  34  40 SW3       30.04F
PITTSFIELD*    SUNNY     59  34  39 S7        30.04F
$$

ILZ028>032-037-038-041>044-048-051>054-059>061-272100-
CENTRAL ILLINOIS

CITY           SKY/WX    TMP DP  RH WIND       PRES   REMARKS
PONTIAC        PTSUNNY   56  34  44 SW8       30.10F
BLOOMINGTON    PTSUNNY   56  37  49 SW12      30.08F
DECATUR        PTSUNNY   58  36  43 SW9       30.08F
PEORIA         MOSUNNY   57  35  43 S14       30.06F
LACON*         SUNNY     55  33  44 S8        30.06F
LINCOLN*       PTSUNNY   60  40  47 SW7       30.06F
SPRINGFIELD    MOSUNNY   60  36  40 S9        30.06F
TAYLORVILLE    MOSUNNY   59  38  45 S12       30.07F
$$

ILZ033-039-045-046-055>057-062-063-272100-
EAST-CENTRAL ILLINOIS

CITY           SKY/WX    TMP DP  RH WIND       PRES   REMARKS
CHAMPAIGN      PTSUNNY   58  36  43 S12       30.10F
RANTOUL*       CLOUDY    58  37  47 S13       30.10F
MATTOON        PTSUNNY   56  42  59 S12       30.09F
PARIS*         CLOUDY    55  40  56 SE10      30.12F
$$

ILZ079-100>102-272100-
SOUTHWEST ILLINOIS

CITY           SKY/WX    TMP DP  RH WIND       PRES   REMARKS
ALTON          MOSUNNY   61  37  41 S12       30.06F
BELLEVILLE     SUNNY     63  41  45 VRB6      30.04F
CAHOKIA*       SUNNY     63  38  39 S9        30.04F
SPARTA*        SUNNY     61  42  48 SW8       30.07F
$$

ILZ064>066-069>071-074>076-080>082-084>086-088>090-092>094-272100-
SOUTH-CENTRAL ILLINOIS

CITY           SKY/WX    TMP DP  RH WIND       PRES   REMARKS
CARBONDALE     SUNNY     61  47  59 S12       30.08F
CAIRO*         MOSUNNY   62  48  60 S9        30.09F
EFFINGHAM*     PTSUNNY   58  42  56 S9        30.11F
MARION         CLOUDY    63  48  59 S12       30.10F
MT. VERNON     SUNNY     62  44  51 S8        30.09F
CENTRALIA*     PTSUNNY   62  45  54 SE8       30.07F
SALEM*         PTSUNNY   59  41  51 SE9       30.08F
METROPOLIS*    PTSUNNY   63  47  57 CALM      30.10F
$$

ILZ067-068-072-073-078-083-087-091-272100-
SOUTHEAST ILLINOIS

CITY           SKY/WX    TMP DP  RH WIND       PRES   REMARKS
LAWRENCEVILLE  PTSUNNY   54  43  66 S14       30.13F
FLORA*         CLOUDY    57  44  61 SE8       30.11F
FAIRFIELD*     CLOUDY    56  45  66 SE6       30.10F
HARRISBURG*    CLOUDY    58  47  66 S6        30.11F
ROBINSON*      CLOUDY    54  42  64 S8        30.13F
CARMI*         CLOUDY    56  46  69 S6        30.11F
$$

ABBREVIATIONS USED IN REMARKS
   TC - TEMPERATURE IN CELSIUS
  WCI - WIND CHILL INDEX
   HX - HEAT INDEX
  VSB - VISIBILITY
$$





USA.gov is the U.S. government's official web portal to all federal, state and local government web resources and services.